Preisvergleich
Suchen Sie bei den großen Preisvergleich Portalen gleichzeitig! 


Sitemap53

4.5.2026 2:04

In den Sitemaps finden Sie im Meta-Preisvergleich häufig gefragte Suchworte sortiert nach der Anzahl der Anfragen.

Anfragen Suchwort Ergebnisse Datum Quellen
3oakley ejector1052026-05-01 00:07:0126
3logitech g g915 x5842026-05-01 00:07:0126
3gq 77 s95 f192026-05-01 00:07:0126
3optima yellow top yt s 4.2 agm 12v 55ah142026-05-01 00:07:0126
3auslaufhahn für regentonne mit filter292026-05-01 00:07:0126
3hp multifunktionsdrucker officejet pro 8122e962026-05-01 00:07:0126
3solarbank max ac362026-05-01 00:07:0126
3bgs induktionsheizgerät 21691832026-05-01 00:07:0124
3gsw gourmet servierpfanne412026-05-01 00:07:0126
3leica iif702026-05-02 00:07:0126
3stapelbehälter euronorm rollen562026-05-01 00:07:0126
332a sicherung6112026-05-02 00:07:0125
350 zoll google tv2692026-05-01 00:07:0125
3kenda alufelge512026-05-01 00:07:0124
3asics fujispeed 41542026-05-01 00:07:0125
3motorola edge fusion 701912026-05-02 00:07:0126
3ninja airfryer flexdrawer2352026-05-02 00:07:0125
3benzin e 103162026-05-02 00:07:0125
3lenovo tab plus tablet 11,5 2k touch display mediatek helio g99 jbl sound132026-05-02 00:07:0126
3festool ro 150 feq rotex2012026-05-02 00:07:0125
3motorrad 20ah3752026-05-02 00:07:0126
3ptms biomülleimer142026-05-03 00:07:0126
3anatole pommesschneider272026-05-02 00:07:0125
3büse open road 32952026-05-02 00:07:0125
3tapo c51a242026-05-04 00:07:0124
3iphone 11 garantie gb1012026-05-02 00:07:0126
3csl load222026-05-02 00:07:0126
3leica osterloh922026-05-03 00:07:0124
33 x 3 terassenüberdachung542026-05-03 00:07:0125
3dwarflab812026-05-04 00:07:0124
3monsieur cuisine smart skms 12002202026-05-03 00:07:0126
3nistschutzbürste462026-05-03 00:07:0125
3greenbay2642026-05-03 00:07:0124
3bosch gtv15nweb512026-05-03 00:07:0126
3abus airdrop1762026-05-03 00:07:0125
3usb-c 45w ladegerät7482026-05-03 00:07:0126
3thin 15 b13ve1082026-05-03 00:07:0125
3schutzblech sks 55 28952026-05-04 00:07:0126
3matratze body guard2172026-05-04 00:07:0126
3tomodachi life living the dream652026-05-04 00:07:0125
3kettensäge msa 2201242026-05-04 00:07:0126
3abc design city life1322026-05-04 00:07:0125
3nordicare holzöl622026-05-04 00:07:0124
3kärcher k5 power control flex2432026-05-04 00:07:0126
3bodywel f20302026-05-04 00:07:0126
3osram led base classic a e27 warmweiß1232026-05-04 00:07:0125
3petec 71450892026-05-04 00:07:0124
3toolkitrc m8s212026-05-04 00:07:0124
3revelator alto elite1512026-05-04 00:07:0125
3rotordüse dreckfräse kärcher3462026-05-04 00:07:0124
3waschmittel großpackung502026-05-04 00:07:0126
3solarbatterieladegerät532026-05-04 00:07:0125
318ah batterie motorrad2082026-05-04 00:07:0126
3hrd-c919972026-05-04 00:07:0125
3galaxy tab 11 plus1562026-05-04 00:07:0126
3schloss zahlen6972026-05-04 00:07:0125
2adidas samba og schwarz4072026-04-13 00:07:0126
2gefriertruhe 300 l a202026-05-04 00:07:0124
2chrom filament pla512026-04-15 00:07:0126
2blumenschale glas812026-03-30 00:07:0125
2tf 834,1242026-04-01 00:07:0124
2gardinia easyfix rollo 75x1501972026-05-01 00:07:0125
2wüsthof icon112026-04-29 00:07:0126
2schwungliege akazienholz532026-04-05 00:07:0125
2psp-s110652026-04-07 00:07:0125
2festplatten 1 tb3572026-04-20 00:07:0125
2gel trabuco 451052026-04-27 00:07:0125
2tesafilm transparent5702026-04-03 00:07:0224
2wolf gartenschere rr 5000452026-03-28 00:07:0126
2compo rasendünger moos - nein danke992026-04-07 00:07:0125
2eis kühltruhe182026-04-15 00:07:0124
2garmin 56742026-05-04 00:07:0125
2torres de casta rosado422026-03-29 00:07:0124
23m kapselgehörschutz7242026-05-02 00:07:0125
2brita flaschen1752026-04-24 00:07:0126
2handyhalterung armaturenbrett5502026-04-05 00:07:0124
2avantree oasis plus 2102026-04-30 00:07:0122
2schneider topball 850 05242026-04-18 00:07:0125
2trodat stempelfarbe4742026-04-17 00:07:0126
2tiagra rd-4500142026-04-23 00:07:0125
2diddl rommee kartenspiel152026-04-17 00:07:0125
21066 mhz ddr3 ecc sdram262026-04-30 00:07:0126
2ck 1 200ml342026-04-29 00:07:0123
2vergrößerungsspiegel 5fach762026-04-15 00:07:0124
2deuter trail 32692026-03-28 00:07:0126
2dynafit speed crampon172026-03-29 00:07:0125
2usb wlan-adapter5902026-04-24 00:07:0126
2katenschinken322026-03-29 00:07:0125
2trigema jogginghose herren2992026-04-21 00:07:0125
2pirelli mt 60 rs3442026-04-11 00:07:0223
2severin 1511322026-05-02 00:07:0125
2gardena profi spritze872026-04-18 00:07:0124
2climair windabweiser fiat ducato512026-04-28 00:07:0125
274626 bretzfeld422026-05-04 00:07:0124
2unterstellbock 4t102026-03-31 00:07:0125
2full hd fernseher 40 zoll4772026-04-11 00:07:0224
2balkonblumentopf1222026-04-09 00:07:0124
2dolce gabbana after shave732026-04-17 00:07:0125
2hörmann supramatic k-schiene222026-04-10 00:07:0125
2diascanner 7200dpi252026-04-17 00:07:0126
2993102682026-04-29 00:07:0124
2magnesium verla 300 100 st372026-04-17 00:07:0124
20336851008112026-03-28 00:07:0125
250-622 28 x 2.003932026-04-27 00:07:0126
2ungesäuertes brot292026-04-04 00:07:0124
2einbecker mai ur-bock182026-03-31 00:07:0125
2sagami4912026-04-04 00:07:0122
2cranberrysaft 1l172026-04-19 00:07:0124
2co messgerät kfz192026-04-04 00:07:0122
2hypocrisy hell over sofia202026-04-20 00:07:0125
2chamo bürger kamillenpuder352026-03-27 00:07:0124
2biegelehre462026-04-20 00:07:0125
2h.i.s. weiter boxer2422026-04-24 00:07:0126
2break free clp 4102026-04-21 00:07:0125
2inverter stromerzeuger eu10i312026-04-15 00:07:0125
2ego 50.55021.1001152026-04-05 00:07:0125
2druckkopf hp b110a902026-05-02 00:07:0124
2ibu lysin hexal 684 mg162026-05-04 00:07:0125
2braun multimix 280 watt82026-04-11 00:07:0225
2gigaset dx600a neu142026-04-09 00:07:0126
2sagami original 0.02272026-04-04 00:07:0124
2meteor petzl1422026-05-03 00:07:0124
2ravenol vsi 5w-40862026-04-16 00:07:0124
2toppits mikrowellenfolie 2 in 192026-04-15 00:07:0124
2abb e451212026-03-26 00:07:0224
2tannin 1kg242026-05-03 00:07:0125
2tortuga alaska82026-04-11 00:07:0225
2dasselta 5112026-04-28 00:07:0125
2pirelli p zero 215 40 181152026-04-07 00:07:0125
2kfz-ersatzteile2522026-04-02 00:07:0126
2continuum blu ray572026-03-30 00:07:0126
2altomayo espresso422026-04-25 00:07:0126
2bosch kettenöl432026-04-21 00:07:0124
2glenmorangie lasanta 12 years172026-04-09 00:07:0124
2lamy m16 blau m2832026-04-13 00:07:0125
2der schwarze hund2812026-04-05 00:07:0124
2cantuccini 1kg492026-04-19 00:07:0125
2hx318c10fk2 1692026-05-03 00:07:0126
2fetra sackkarre a1331l212026-04-23 00:07:0125
2hotelschuhe1212026-04-29 00:07:0125
2din a4 50001452026-04-02 00:07:0125
2itron cyble sensor132026-04-17 00:07:0125
2uzin pe 360232026-04-17 00:07:0126
205073671001282026-04-15 00:07:0124
2torrent jacke4442026-03-29 00:07:0126
2prontosan 350ml1482026-04-25 00:07:0126
2lochschneider 35 mm2032026-04-26 00:07:0126
2herdanschlussdose jäger102026-04-14 00:07:0125
2hydraulikstempel492026-04-02 00:07:0125
2teichpumpe 5000l1082026-04-19 00:07:0125
2vancofourseason 225 75 r16452026-04-22 00:07:0124
2audix fp592026-05-02 00:07:0124
2finalsan unkrautfrei plus 1 liter482026-04-16 00:07:0124
2amazonas sono252026-04-11 00:07:0224
2packsack tatonka3242026-03-31 00:07:0126
2sodastream rot852026-04-06 00:07:0125
2die letzten ihrer art douglas adams312026-04-11 00:07:0225
2merten steckdose aquastar4202026-04-02 00:07:0124
2hive relaunch102026-04-26 00:07:0124
2falketind warm21762026-04-15 00:07:0124
2lagavulin distillers edition whisky1132026-04-15 00:07:0125
2daiwa presso5732026-04-21 00:07:0126
2regaine 3 frauen442026-04-25 00:07:0126
2wd my passport ultra externe festplatte 2 tb682026-04-25 00:07:0124
2beko wmb 71643 pte neu112026-03-29 00:07:0125
2naber flow star 150442026-04-22 00:07:0125
2bremsflüssigkeit 1 l5312026-03-30 00:07:0125
2boss morgenmantel1022026-04-01 00:07:0125
2ate 13.0470-2723.2592026-04-21 00:07:0126
226621000342026-04-03 00:07:0225
2pylones krokodil82026-05-01 00:07:0124
2nichiban3752026-04-20 00:07:0125
2paddocks ranger black3792026-04-18 00:07:0125
2doepke b163852026-04-18 00:07:0126
2ebastin 20 mg262026-04-25 00:07:0125
2güde hwa 1100192026-04-12 00:07:0125
2gardena 995342026-04-28 00:07:0124
2fu8380 abus82026-03-26 00:07:0224
2proxxon 23252192026-04-01 00:07:0123
2pico 28152026-04-11 00:07:0224
2druckkopf canon qy6-0075302026-04-15 00:07:0125
2nb 5742392026-04-22 00:07:0125
2black decker pv 1820l302026-04-09 00:07:0124
2tarhonya392026-03-27 00:07:0125
2türblocker2152026-04-10 00:07:0124
2antriebswellenfett362026-04-19 00:07:0124
2pc-system mit core ultra 7122026-03-27 00:07:0125
2pfr7s8eg2432026-04-23 00:07:0123
2edifier r2000372026-05-01 00:07:0124
2078105229d162026-04-09 00:07:0125
2nuc n3050172026-03-27 00:07:0125
2hd reiniger bis 150 bar192026-04-19 00:07:0125
2blomus 68821162026-04-02 00:07:0124
2bimos fin912026-04-08 00:07:0124
2lagrein kretzer682026-04-25 00:07:0124
2druckerpapier 10000 blatt732026-03-30 00:07:0125
2magna3 32-1201322026-04-30 00:07:0125
2backofenrost bosch722026-04-08 00:07:0126
2dübel s10 100 stück252026-04-12 00:07:0124
212v netzgerät2672026-04-03 00:07:0224
2logitech g810 orion212026-04-24 00:07:0125
2secula permanent382026-05-03 00:07:0126
2neodym power-magnetband492026-04-13 00:07:0124
2prs30 hunter1402026-03-30 00:07:0125
2famag bormax 202412026-04-22 00:07:0126
2sl-s7000-8632026-04-05 00:07:0125
2spiralhaken 10mm2582026-04-04 00:07:0126
26l schaum feuerlöscher2302026-04-13 00:07:0125
2thule 9152 laderampe242026-04-23 00:07:0125
2isdn adapter speedport342026-04-28 00:07:0125
2exped sim1482026-04-30 00:07:0125
2novoflex q-mount mini342026-05-01 00:07:0125
2einhell te-sd962026-04-18 00:07:0126
2wildtulpen542026-04-13 00:07:0125
2keen targhee 45 mid442026-04-09 00:07:0126
2compo blaukorn 25 kg442026-04-07 00:07:0126
2rhombuszaun lärche742026-03-29 00:07:0125
2leukotape k 5cm 5m692026-04-14 00:07:0125
2led deckenleuchte sternenhimmel 57 cm132026-04-10 00:07:0125
2viega mt52912026-04-20 00:07:0125
2talisker sky112026-04-15 00:07:0124
2dehn 924396312026-04-19 00:07:0124
2vitamin d3 k2 kapseln7592026-04-12 00:07:0124
2shimano fahrradhose782026-05-01 00:07:0126
2weber gasgrill genesis ii e-410 gbs82026-04-09 00:07:0123
2926371182026-04-30 00:07:0124
2sigg wmb traveller392026-03-31 00:07:0125
2perlschlauch 20m842026-04-18 00:07:0126
219332000282026-04-23 00:07:0124
2siemens bodenstaubsauger extreme silence312026-04-14 00:07:0124
2sandisk extreme pro 32gb microsdhc702026-04-09 00:07:0126
2grillmotor regelbar292026-04-27 00:07:0125
2rasiercreme kaloderma142026-04-13 00:07:0125
2lavera men after shave balsam392026-03-26 00:07:0226
2van den hul d 502142026-04-13 00:07:0126
2nexen n blue hd plus 195 55 r152362026-03-26 00:07:0224
2rip curl reefer492026-04-12 00:07:0125
2gardena 3391172026-04-19 00:07:0124
2makita p-47058292026-04-27 00:07:0125
2vw 507 00 5w-30 5 liter1782026-04-05 00:07:0124
22xr j501552026-03-27 00:07:0124
2canton ergo 690dc wenge82026-03-26 00:07:0224
2coffee to go becher mit deckel5412026-04-23 00:07:0126
2ytz5s2812026-04-10 00:07:0123
2gardena combisystem kunststoff-verstellbesen442026-04-11 00:07:0225
2signotec pad892026-05-01 00:07:0124
2astaxanthin 240 kapseln242026-04-15 00:07:0125
2er265003282026-03-28 00:07:0125
2merrell intercept 45172026-04-09 00:07:0125
2festool hkc 55 set822026-04-09 00:07:0126
2einhell akkuschrauber tc-sd592026-04-16 00:07:0126
2rokamat sanierungsschleifer82026-04-01 00:07:0125
2kaiser springform 263532026-04-19 00:07:0126
anzahl 254 xml 253


Preisvergleich
Wichtige Information zu den Preisangaben: Alle Preise verstehen sich inklusive der gesetzlichen Mehrwertsteuer und gegebebenfalls zuzüglich Versandkosten. Zum Zeitpunkt des Kaufes ist der aktuell auf der Händlerseite angegebene Preis maßgeblich. Bitte beachten Sie, dass aus technischen Gründen zeitweise Abweichungen, des Preises, der Lieferbarkeit und der Versandkosten entstehen können.

Affiliate-Offenlegung: Wenn Sie auf dieser Website auf Links zu verschiedenen Händlern klicken und einen Kauf tätigen, kann dies dazu führen, dass diese Website eine Provision erhält. Zu den Partnerprogrammen und Partnerschaften gehört unter anderem das eBay Partner Network. Als Amazon-Partner verdienen wir an qualifizierten Verkäufen.

Diese Website verwendet Cookies und Dienste von Drittanbietern. Durch die Nutzung dieser Website erklären Sie sich damit einverstanden, dass wir Cookies verwenden und Daten an Drittanbieter weitergeben. Insbesondere geben Sie durch das Klicken auf externe Links Ihr Einverständnis, dass anonyme Affiliate-Tracking-Cookies verwendet werden.

Meta-Preisvergleich - Ihre intelligente Shopping-Plattform

Funktionen:
Preisvergleich - Produktvergleich - Shopbewertung - Gutscheine - Produktbilder

Themen:
Buch Preisvergleich - Musik Preisvergleich - Film Preisvergleich - Spiele Computerspiele - Medikamente - Ärzte - Optik und Kontaktlinsen - Krankenversicherung - Preisvergleich Reisen - Kreuzfahrt Preisvergleich - Flüge Preisvergleich - Mietwagen - Hotel Preisvergleich - Ferienhaus Mieten - Stromtarife - Versicherungen - Geldanlage - Finanzierung - Auto - Immobilien - Handy-Tarife - Internetzugang - Geschenke - Singlebörsen - KI-Chatbot

Erklärungen:
Preisvergleich Übersicht / Marktübersicht - Liste der Preisvergleich Quellen - Benutzerdefinierte Preisvergleich Quellen - Erklärungen zum Meta-Preisvergleich

Sitemaps:
1 - 2 - 3 - 4 - 5 - 6 - 7 - 8 - 9 - 10 - 11 - 12 - 13 - 14 - 15 - 16 - 17 - 18 - 19 - 20 - 21 - 22 - 23 - 24 - 25 - 26 - 27 - 28 - 29 - 30 - 31 - 32 - 33 - 34 - 35 - 36 - 37 - 38 - 39 - 40 - 41 - 42 - 43 - 44 - 45 - 46 - 47 - 48 - 49 - 50 - 51 - 52 - 53 - 54 - 55 - 56 - 57 - 58 - 59 - 60 - 61 - 62 - 63 - 64 - 65 - 66 - 67 - 68 - 69 - 70 - 71 - 72 - 73 - 74 - 75 - 76 - 77 - 78 - 79 - 80 - 81 - 82 - 83 - 84 - 85 - 86 - 87 - 88 - 89 - 90 - 91 - 92 - 93 - 94 - 95 - 96 - 97 - 98 - 99 - 100 -
Impressum / Datenschutzerklärung     Presse / Links / Logos    
Copyright © 2003-2026 MetaMind GmbH